Temp
17 17 17 17 17 17 18 18 18 18 18 18 18 19 19 19 20 20 20 20 20 20 19 19 19 18 18 18 18 18 22 23 24 23 25 23 23 22 21 21 23 22 21 22 21
17 17 17 17 17 17 17 18 18 18 18 18 18 18 19 19 20 21 20 20 20 20 19 19 18 17 20 19 19 20 22 24 25 25 24 24 23 22 22 23 23 24 23 21 20
16 17 17 17 17 17 18 18 18 18 18 18 18 18 18 19 19 20 20 20 20 20 19 17 18 18 19 19 20 21 21 24 24 23 22 22 22 22 21 22 23 24 24 23 22
16 16 17 17 17 17 18 18 18 18 18 18 18 18 18 18 21 20 20 20 19 19 19 17 18 19 20 20 21 19 21 21 21 21 19 20 21 21 21 21 22 22 22 21 21
16 16 16 16 16 17 17 17 17 17 18 18 18 18 18 17 19 20 19 19 19 18 17 17 18 19 20 21 20 19 20 21 20 20 19 18 19 20 20 21 21 21 21 21 20
15 15 15 15 15 16 16 17 17 17 18 18 18 17 17 18 19 19 19 19 18 18 17 17 19 19 19 20 20 21 19 19 19 19 19 18 19 20 21 22 22 21 21 22 21
14 14 14 14 15 15 15 16 16 17 17 18 18 17 16 18 18 19 19 18 18 18 16 16 16 17 18 19 19 17 18 20 21 21 21 18 19 20 21 22 21 21 21 22 22
13 13 14 13 14 14 15 15 16 16 17 17 17 17 16 17 18 17 17 17 16 16 16 16 16 16 17 18 18 18 19 18 22 19 19 17 19 22 21 20 20 21 21 21 21
12 12 13 13 13 13 14 15 15 16 17 17 17 16 18 17 17 17 17 15 15 15 15 15 15 17 17 17 18 20 19 20 21 22 19 17 19 21 20 20 19 20 20 20 20
12 12 12 12 13 13 14 15 15 16 16 16 15 15 17 16 16 16 16 15 14 14 14 14 16 17 18 19 18 20 21 21 20 22 21 20 19 20 20 20 20 20 20 20 19
11 11 12 12 12 12 13 14 15 15 14 16 16 16 16 16 15 15 14 14 13 15 17 15 17 17 20 20 20 19 19 19 20 20 19 19 18 19 20 20 20 21 21 21 19
11 11 11 11 11 12 12 12 12 11 12 14 15 15 14 14 14 13 13 14 14 16 16 15 16 18 19 19 16 17 17 18 19 20 19 18 17 18 19 20 21 20 20 19 17
11 11 11 11 11 12 11 12 12 11 11 14 12 11 12 12 13 14 13 14 15 16 15 16 18 18 17 17 17 18 17 18 17 18 17 17 17 20 20 21 21 20 17 14 13
11 10 11 10 11 11 11 11 11 11 14 16 13 11 11 11 13 11 11 13 15 16 17 16 17 15 15 15 17 16 18 16 16 15 16 17 15 18 20 21 20 18 15 12 10
9 9 10 10 10 10 11 11 11 11 14 15 13 11 11 12 12 11 11 12 14 16 15 17 14 14 15 16 16 17 14 15 15 15 15 17 16 19 21 19 18 15 12 9 8
9 10 10 9 10 10 10 10 11 13 13 15 13 13 13 12 12 10 11 11 11 14 14 15 13 14 16 16 15 14 14 15 15 15 14 18 17 18 19 18 17 13 10 9 7
9 9 9 9 9 10 10 10 13 12 15 15 14 14 14 14 14 13 14 13 15 15 16 17 15 14 13 14 14 13 14 14 15 15 15 17 15 17 18 18 16 12 9 7 6
8 8 9 9 9 9 10 12 9 12 15 13 13 13 14 15 15 14 14 15 16 14 14 15 15 14 14 14 15 15 15 14 12 14 15 15 15 17 18 13 11 9 8 6 5
7 8 8 9 8 8 9 9 11 14 15 15 14 14 15 15 13 14 15 15 15 15 14 14 15 16 13 14 13 15 13 15 12 11 11 14 16 18 17 12 10 9 7 6 5
6 6 7 8 8 8 9 9 12 13 12 13 13 15 14 14 13 14 14 13 12 12 12 12 11 14 12 12 12 13 12 12 12 9 10 13 14 16 16 14 10 8 6 5 4
5 6 7 7 7 6 7 10 11 11 10 12 12 13 13 13 12 10 11 12 12 12 11 11 9 12 12 12 12 13 11 12 12 11 10 10 13 12 11 11 8 6 4 3 3
5 6 6 5 5 7 8 9 9 9 9 10 10 10 11 12 11 11 11 12 12 11 10 11 10 8 10 13 13 12 11 11 10 9 10 10 9 11 8 6 5 4 3 2 1
4 4 5 4 6 7 8 8 9 9 9 9 9 10 11 10 9 10 11 11 9 9 9 9 7 6 8 12 8 8 10 10 9 8 7 8 10 8 5 4 2 2 1 1 0
3 5 3 4 6 8 8 9 8 8 9 9 9 9 9 9 9 9 9 9 7 7 6 6 5 6 7 9 10 8 7 8 6 6 7 8 7 7 6 4 2 2 2 1 1
2 5 5 4 4 6 8 8 8 7 7 7 8 8 8 7 8 8 9 9 7 6 6 7 5 6 7 8 8 6 6 7 7 7 6 7 7 8 9 8 4 3 2 1 1
1 2 1 4 6 6 6 6 7 7 6 6 7 8 7 6 7 5 6 6 6 7 6 6 4 5 3 5 5 5 6 7 7 7 6 7 7 10 6 3 3 3 2 2 2
-0 0 1 2 3 4 5 6 6 6 4 4 6 5 4 5 4 2 2 3 3 3 3 4 3 3 2 4 4 2 4 5 6 7 7 6 5 0 2 2 2 1 1 1 1
Height
1545 1545 1544 1543 1543 1543 1542 1541 1541 1540 1539 1538 1537 1536 1535 1533 1532 1530 1529 1529 1528 1528 1530 1531 1531 1532 1533 1534 1534 1533 1529 1523 1519 1519 1513 1518 1520 1520 1520 1518 1516 1515 1513 1513 1509
1543 1543 1543 1542 1542 1541 1541 1540 1539 1538 1538 1537 1536 1535 1534 1532 1530 1527 1527 1525 1526 1527 1529 1531 1533 1533 1534 1534 1534 1532 1526 1518 1514 1514 1514 1515 1517 1518 1517 1514 1509 1509 1508 1509 1508
1542 1541 1541 1540 1540 1539 1539 1538 1537 1536 1536 1535 1534 1533 1532 1531 1529 1527 1526 1526 1527 1528 1529 1531 1532 1533 1532 1532 1530 1526 1523 1516 1515 1517 1517 1516 1516 1516 1514 1509 1507 1505 1505 1505 1505
1540 1540 1539 1538 1538 1537 1536 1536 1535 1534 1533 1532 1532 1531 1530 1531 1530 1526 1526 1526 1526 1527 1527 1529 1531 1531 1529 1526 1524 1526 1520 1520 1518 1519 1519 1517 1513 1512 1511 1504 1507 1504 1502 1501 1498
1537 1537 1537 1536 1535 1534 1533 1533 1532 1531 1530 1530 1529 1528 1528 1529 1527 1524 1524 1524 1525 1525 1526 1528 1529 1529 1526 1522 1524 1522 1518 1516 1517 1517 1517 1516 1510 1510 1504 1504 1501 1500 1498 1496 1493
1535 1535 1534 1534 1533 1532 1531 1530 1529 1528 1527 1527 1526 1526 1526 1526 1521 1520 1520 1520 1522 1523 1525 1527 1527 1528 1525 1523 1522 1516 1518 1516 1513 1513 1513 1512 1505 1508 1497 1499 1496 1496 1493 1492 1490
1533 1532 1532 1532 1531 1530 1529 1528 1527 1526 1524 1524 1523 1523 1522 1520 1518 1518 1518 1518 1519 1521 1523 1525 1526 1527 1524 1520 1519 1519 1517 1510 1505 1503 1505 1510 1502 1498 1494 1493 1493 1491 1488 1485 1485
1530 1530 1530 1530 1529 1528 1527 1525 1524 1523 1522 1521 1520 1520 1519 1514 1514 1514 1515 1515 1517 1519 1520 1521 1523 1525 1524 1520 1519 1517 1511 1512 1497 1501 1505 1509 1500 1489 1492 1492 1489 1485 1482 1480 1477
1529 1528 1528 1528 1527 1527 1525 1523 1522 1520 1519 1518 1518 1519 1516 1512 1513 1512 1512 1513 1514 1516 1518 1520 1523 1523 1521 1519 1515 1507 1508 1501 1497 1495 1502 1506 1497 1490 1490 1490 1485 1477 1475 1475 1473
1526 1526 1526 1526 1525 1525 1523 1521 1519 1518 1517 1517 1516 1520 1514 1512 1511 1510 1511 1511 1513 1515 1518 1520 1521 1520 1516 1514 1514 1498 1494 1491 1493 1492 1492 1493 1490 1489 1485 1481 1474 1470 1470 1469 1469
1524 1524 1524 1524 1524 1523 1523 1521 1521 1519 1516 1516 1515 1513 1510 1508 1508 1507 1508 1510 1512 1514 1514 1517 1516 1513 1503 1501 1501 1500 1500 1496 1492 1491 1491 1488 1486 1483 1480 1472 1466 1465 1464 1465 1467
1521 1522 1523 1523 1523 1522 1521 1522 1522 1523 1517 1511 1509 1507 1505 1505 1506 1504 1508 1512 1512 1510 1512 1516 1510 1503 1502 1503 1507 1503 1501 1497 1489 1487 1489 1486 1484 1477 1472 1465 1463 1460 1463 1465 1468
1519 1520 1521 1522 1521 1521 1521 1521 1520 1520 1518 1505 1502 1502 1504 1505 1504 1504 1507 1508 1508 1506 1509 1505 1498 1499 1503 1502 1500 1498 1500 1495 1494 1491 1489 1484 1478 1464 1464 1459 1459 1461 1465 1471 1474
1516 1518 1518 1520 1522 1519 1520 1520 1519 1518 1509 1495 1500 1500 1501 1503 1504 1502 1503 1508 1505 1500 1498 1499 1497 1500 1502 1502 1500 1500 1490 1494 1496 1498 1492 1487 1481 1468 1456 1452 1458 1464 1470 1470 1472
1514 1514 1516 1517 1518 1518 1519 1518 1518 1518 1516 1498 1500 1500 1499 1502 1504 1503 1503 1505 1502 1500 1501 1491 1498 1502 1499 1495 1496 1493 1495 1493 1493 1492 1487 1484 1484 1457 1448 1452 1458 1470 1475 1476 1474
1509 1510 1512 1515 1515 1514 1516 1516 1517 1516 1510 1496 1501 1502 1502 1504 1504 1503 1504 1505 1505 1501 1501 1495 1500 1501 1495 1492 1495 1497 1494 1491 1489 1489 1484 1464 1470 1459 1454 1457 1461 1470 1473 1476 1477
1505 1506 1510 1511 1514 1513 1513 1517 1514 1513 1496 1494 1497 1498 1498 1498 1500 1503 1501 1501 1497 1498 1490 1485 1491 1492 1496 1498 1497 1497 1496 1489 1487 1484 1474 1463 1472 1460 1455 1457 1460 1469 1474 1474 1474
1503 1504 1505 1507 1510 1512 1512 1515 1519 1501 1493 1497 1497 1498 1498 1496 1494 1499 1496 1493 1491 1496 1496 1492 1488 1488 1492 1492 1491 1489 1490 1495 1496 1483 1473 1471 1464 1453 1450 1461 1464 1467 1470 1474 1477
1499 1501 1503 1506 1508 1511 1514 1512 1503 1491 1489 1492 1494 1493 1489 1491 1499 1494 1490 1490 1490 1493 1496 1491 1485 1482 1491 1490 1494 1486 1493 1485 1492 1488 1489 1469 1454 1445 1448 1460 1467 1472 1475 1478 1479
1495 1498 1500 1503 1507 1509 1510 1503 1494 1492 1495 1494 1493 1486 1488 1487 1493 1492 1491 1493 1495 1497 1496 1493 1495 1485 1491 1492 1491 1490 1492 1492 1489 1501 1488 1464 1454 1445 1444 1449 1464 1470 1475 1478 1475
1494 1494 1494 1499 1504 1510 1503 1495 1493 1494 1495 1495 1491 1489 1487 1491 1491 1499 1496 1494 1495 1497 1500 1499 1505 1486 1488 1484 1485 1487 1489 1488 1485 1483 1481 1478 1459 1456 1455 1459 1467 1471 1473 1472 1474
1490 1493 1492 1496 1504 1500 1494 1492 1494 1494 1494 1494 1495 1495 1492 1490 1490 1492 1491 1490 1493 1498 1499 1498 1498 1497 1485 1479 1481 1483 1485 1485 1487 1481 1472 1471 1465 1456 1466 1472 1474 1476 1475 1475 1475
1486 1489 1490 1494 1491 1490 1489 1487 1490 1491 1489 1492 1491 1492 1490 1491 1495 1491 1490 1492 1495 1500 1498 1498 1501 1502 1487 1475 1485 1486 1484 1483 1483 1485 1479 1472 1457 1466 1471 1472 1472 1473 1476 1476 1474
1484 1487 1488 1487 1485 1483 1483 1481 1485 1488 1488 1489 1488 1489 1491 1491 1491 1488 1491 1493 1498 1501 1502 1502 1502 1498 1495 1482 1480 1488 1487 1486 1490 1485 1473 1464 1463 1461 1466 1467 1468 1467 1469 1471 1470
1474 1477 1475 1477 1477 1482 1483 1479 1480 1482 1487 1488 1486 1487 1488 1490 1485 1484 1486 1489 1495 1498 1499 1500 1498 1493 1488 1485 1485 1486 1486 1480 1477 1473 1474 1459 1460 1455 1457 1460 1466 1464 1466 1470 1471
1471 1473 1473 1473 1472 1476 1477 1476 1479 1482 1485 1483 1484 1483 1488 1489 1488 1491 1491 1495 1495 1495 1495 1497 1497 1493 1491 1486 1487 1483 1473 1468 1470 1467 1463 1460 1453 1454 1456 1462 1464 1465 1466 1467 1466
1466 1468 1468 1472 1475 1473 1469 1470 1474 1478 1481 1484 1485 1488 1490 1490 1492 1496 1497 1499 1498 1498 1498 1498 1495 1494 1487 1485 1486 1481 1466 1466 1460 1457 1454 1450 1453 1460 1461 1463 1463 1465 1465 1465 1465
Wind_Speed
4 4 5 5 5 6 7 7 7 7 7 8 9 10 11 12 14 15 15 11 10 8 8 7 6 5 4 4 4 2 5 7 8 7 2 4 6 4 7 12 16 12 15 15 21
5 6 6 7 8 8 8 9 9 10 10 10 11 12 13 14 17 17 9 5 3 4 9 7 7 6 5 3 3 7 8 9 6 9 9 12 11 13 13 16 22 20 20 15 18
8 8 9 9 10 11 11 12 12 12 12 12 12 13 14 14 15 2 2 3 2 0 7 9 6 7 8 6 7 5 9 12 14 15 17 15 16 18 16 17 19 15 16 19 18
11 11 11 11 12 12 13 13 13 14 14 14 13 14 14 11 6 2 4 5 6 5 9 10 8 6 7 9 9 10 16 17 20 13 9 15 22 17 19 29 26 26 25 23 21
12 12 12 12 11 12 13 14 14 14 14 14 13 13 13 5 10 15 15 14 12 10 10 10 10 10 10 8 9 14 16 19 17 19 18 21 26 21 29 30 30 27 23 21 22
11 11 11 11 11 12 13 14 14 15 16 15 14 13 10 11 12 10 8 8 9 10 11 12 5 10 13 14 13 14 14 20 23 21 20 18 26 20 30 21 20 18 21 21 21
11 11 10 9 10 11 13 13 14 14 14 14 13 13 13 15 14 13 13 12 12 11 11 12 10 7 6 10 9 11 13 16 23 25 13 8 16 14 21 15 15 21 22 25 25
10 9 8 8 8 10 13 13 14 14 13 13 11 10 8 13 12 12 15 16 12 13 14 13 11 10 11 8 7 10 13 13 6 3 1 8 15 18 9 12 21 27 33 31 29
8 8 7 8 9 10 12 13 14 14 13 11 7 6 6 8 7 8 9 10 10 12 13 10 8 10 9 9 12 13 14 18 15 13 2 11 13 15 26 28 33 36 31 27 26
9 9 8 8 9 10 12 12 13 11 9 5 3 4 6 3 5 6 6 7 5 7 4 6 7 8 9 11 13 17 19 20 15 17 14 17 22 20 28 27 32 33 29 22 16
10 10 10 9 9 11 11 10 7 5 4 6 8 11 13 16 16 11 7 7 7 8 6 9 8 10 15 16 20 20 21 23 21 20 22 21 21 20 26 32 30 27 21 12 4
13 13 10 8 10 10 8 2 4 5 10 16 21 23 22 16 5 6 6 8 6 9 6 4 12 15 15 13 13 18 21 21 20 17 13 17 21 25 22 22 17 15 13 3 12
15 13 11 9 10 9 4 4 6 8 7 9 11 7 5 9 9 7 9 5 8 11 12 17 15 5 9 12 18 18 19 22 22 18 17 13 15 12 10 24 13 8 12 18 15
16 13 11 8 8 2 3 5 6 10 5 4 3 1 0 2 4 4 10 5 5 8 11 11 8 6 11 15 14 15 12 7 12 9 10 7 11 11 17 12 9 17 18 16 16
14 12 11 8 6 4 6 6 5 4 7 2 3 2 3 2 1 1 5 3 9 6 5 0 5 4 8 9 4 8 2 7 8 11 16 14 9 5 15 8 13 13 13 14 15
14 11 10 11 10 8 5 2 2 4 7 1 2 1 1 1 1 2 1 2 2 4 8 17 2 4 10 3 7 6 7 14 13 8 8 6 6 4 4 5 12 11 12 13 13
12 10 10 9 6 6 5 2 4 5 2 4 1 1 1 1 3 3 3 5 3 5 8 5 7 6 4 7 5 6 8 7 8 8 13 5 6 9 6 3 5 10 9 11 12
10 10 10 10 9 8 9 3 8 2 9 3 2 1 3 3 3 4 4 10 8 6 10 13 17 7 10 6 12 10 9 7 10 14 16 8 12 10 5 14 14 12 12 10 9
12 11 12 11 10 8 5 7 6 10 11 12 8 10 15 7 5 5 10 13 10 10 9 10 9 5 4 4 2 5 7 8 6 11 8 14 23 18 12 12 10 11 10 8 7
14 9 13 13 12 11 6 9 10 8 2 5 13 10 13 8 8 7 6 3 1 1 1 1 10 3 1 2 8 6 5 7 4 5 15 12 18 13 7 12 10 8 8 7 10
10 5 8 17 15 9 7 8 10 9 2 6 11 16 13 12 9 6 5 3 5 2 2 4 3 9 6 7 12 10 10 11 12 11 13 16 13 8 9 8 7 7 7 9 9
10 3 10 20 8 7 10 5 4 5 6 7 6 11 13 10 9 12 15 14 3 9 8 10 5 10 23 21 19 14 15 16 12 9 11 13 12 10 8 7 6 4 7 6 5
7 5 14 27 7 10 8 8 12 7 11 7 8 9 7 11 7 11 12 5 4 4 3 3 2 5 8 10 2 4 6 12 14 12 17 14 12 7 4 3 2 5 8 5 5
8 4 7 18 15 10 16 14 14 8 14 18 10 9 10 11 11 7 7 2 2 1 3 2 5 11 13 17 19 19 18 15 11 9 17 16 14 15 14 9 8 13 8 7 5
10 5 7 7 12 14 12 3 13 12 8 7 8 17 15 11 12 18 17 11 5 4 4 4 10 15 18 21 19 18 19 24 24 23 23 24 23 24 23 17 9 3 2 7 9
6 4 3 3 14 18 16 14 16 10 7 10 13 7 9 9 10 5 7 7 12 10 11 7 10 11 16 19 20 21 24 24 22 22 24 25 28 23 11 3 3 3 6 9 12
10 8 5 6 7 8 13 17 10 11 6 8 8 6 7 9 6 1 4 8 10 7 9 11 8 8 18 16 18 16 24 23 26 26 25 22 12 7 5 4 5 7 9 12 13
Wind_Direction
310 319 325 328 328 329 329 329 326 323 320 319 318 318 319 319 317 311 304 281 274 244 226 219 217 210 194 235 219 243 255 266 271 277 308 156 277 187 274 273 277 259 272 288 290
293 303 311 316 317 318 317 316 315 315 315 315 315 314 317 319 319 312 297 267 238 216 218 214 203 202 225 241 230 233 252 280 285 289 281 299 288 286 282 273 275 274 272 284 277
291 296 302 306 308 309 310 311 310 309 308 309 309 311 315 325 327 272 140 118 80 35 213 204 212 206 245 251 224 226 252 279 286 280 286 285 287 280 261 271 272 292 293 293 284
287 292 294 296 301 303 304 304 305 306 305 306 306 305 306 314 301 289 245 263 279 257 223 209 199 216 247 232 244 257 253 270 278 292 282 277 288 274 264 269 284 283 288 288 279
282 285 289 293 297 297 299 300 301 300 299 298 299 298 302 270 256 269 273 271 272 257 215 204 220 242 256 265 274 247 269 275 278 275 271 278 271 273 275 283 283 285 283 278 277
273 278 285 290 295 298 298 299 301 301 299 295 290 286 283 258 260 273 267 260 250 237 224 215 224 248 283 277 260 303 296 283 278 274 271 267 276 285 274 280 286 287 289 289 284
265 268 275 285 293 296 298 302 303 303 300 295 286 278 267 259 264 260 262 255 247 233 222 222 228 227 308 262 276 283 293 293 281 267 245 264 277 241 274 278 273 285 287 291 289
251 261 273 288 299 304 308 311 311 309 307 301 286 268 258 260 259 259 262 261 247 237 224 230 236 247 248 277 265 272 273 277 293 10 172 192 278 293 328 313 293 284 290 291 290
248 257 271 288 299 306 313 315 314 310 305 299 280 231 263 282 278 274 257 245 247 234 229 243 219 233 231 244 274 244 268 278 295 297 193 213 277 291 300 295 289 286 287 294 296
239 249 264 280 296 305 313 322 316 304 292 300 259 221 251 270 284 288 283 225 197 186 165 187 206 234 234 246 254 285 292 296 286 295 263 272 279 286 289 290 278 281 289 293 301
235 252 265 281 306 315 317 342 323 291 306 267 286 276 293 275 276 274 240 177 149 184 218 194 225 226 252 249 258 277 284 285 285 296 296 298 297 298 290 282 279 283 288 294 354
245 261 273 297 312 324 333 13 317 294 299 275 268 255 251 253 256 252 180 182 196 227 160 192 240 254 271 281 290 278 281 282 288 296 311 291 295 292 290 278 285 295 310 56 101
253 263 280 292 303 317 339 344 331 339 262 272 243 251 251 259 247 236 185 207 220 236 222 254 270 315 269 259 264 272 283 291 296 309 292 297 284 292 256 290 295 341 100 80 62
250 254 279 287 304 284 316 330 333 336 272 185 171 169 277 217 227 232 196 223 224 261 255 264 281 248 253 254 268 274 283 296 295 302 300 15 298 291 276 263 70 104 85 79 62
241 255 262 257 234 269 270 292 318 329 283 76 141 177 172 190 110 37 188 213 255 233 222 144 170 185 225 237 221 264 304 284 278 269 287 277 261 273 279 269 111 94 80 66 66
235 240 245 247 246 250 248 253 299 222 245 100 72 57 215 226 67 107 127 200 267 257 247 268 91 256 253 263 226 345 278 265 260 265 265 296 269 290 20 0 123 116 94 76 64
235 228 222 214 213 183 146 142 241 232 120 137 106 177 286 151 196 216 187 195 256 297 269 279 226 192 237 260 206 228 277 295 274 255 267 231 278 263 322 168 139 127 94 74 68
209 209 205 206 186 171 155 203 221 320 270 107 153 194 297 358 180 189 245 267 222 242 282 288 293 186 159 239 305 282 263 265 287 284 294 288 269 248 353 119 128 131 121 98 72
207 203 206 203 195 182 209 223 215 223 239 242 225 268 265 233 251 291 272 280 297 293 259 304 258 348 263 273 281 285 243 286 288 277 282 264 269 273 232 154 136 120 108 92 81
210 216 235 228 221 195 217 245 248 239 329 252 245 245 250 205 219 227 270 88 134 297 240 83 290 264 76 278 217 235 346 265 221 254 261 262 273 271 260 171 145 116 90 60 38
217 193 222 215 202 190 228 229 260 235 211 238 252 264 267 269 258 212 229 235 240 258 354 26 220 278 304 236 266 258 254 242 266 249 260 268 267 22 42 89 112 78 48 29 23
189 201 189 172 171 206 229 216 233 199 214 247 282 272 269 266 250 238 247 249 148 326 277 282 285 264 276 286 286 295 269 275 256 251 248 263 259 3 85 86 80 42 354 346 354
183 183 179 175 212 220 233 230 232 203 213 202 226 228 240 241 245 250 260 275 331 316 290 58 223 281 283 279 89 212 279 279 264 264 261 273 284 89 95 127 174 265 274 258 309
162 175 176 208 232 245 229 232 223 216 240 240 244 251 236 238 241 254 247 226 89 263 88 67 243 247 258 276 303 297 296 292 279 272 280 264 274 270 249 233 223 222 243 262 273
176 208 187 195 220 222 239 246 232 216 221 223 240 238 240 250 247 250 256 255 257 223 241 245 261 263 269 274 282 287 281 275 270 266 261 277 287 288 296 303 323 305 249 259 258
182 178 186 216 213 211 217 226 222 202 186 217 234 213 188 236 229 265 313 281 268 277 261 266 270 290 281 277 276 276 271 267 271 272 270 272 273 279 340 25 266 279 275 292 299
206 188 158 167 195 198 217 226 228 233 211 246 258 232 236 259 302 287 248 266 267 270 271 265 268 264 268 281 287 270 257 263 263 263 269 275 307 358 4 332 315 303 296 300 304